Showing default

SBS 1, 12065

Orbit data source: Space-Track

SBS 1, 12065 is a payload satellite owned by SBS (US) in GEO that was launched on Sat, 15 Nov 1980 UTC via a DELTA 3910/PAM launch vehicle from the Air Force Eastern Test Range (AFETR). Payload-class satellites include a variety of spacecraft equipped with specific instruments for various scientific and technological missions. These include communications satellites like Starlink; space stations such as the ISS; scientific satellites like the Hubble; Earth observation satellites from companies like Planet Labs, Umbra, and HawkEye 360; GPS; miniature CubeSats for education and research; and military/defense satellites.

Loading next visibility...
Identifier
12065, 1980-091A
Orbit
GEO
Country
Flag of USUS
Related business
Manufacturer
Hughes
Mission
Spacecraft
Bus & Motor
HS-376, TE-M-700-5
Mass
~1,064 kg wet, 424 kg dry
Launch date (UTC)
1980-11-15 (45 years ago)
Launch vehicle
DELTA 3910/PAM
Launch site
Air Force Eastern Test Range (AFETR)
Object type
Payload
Rocket body
Debris
Shape & HBR
Unknown
Radar Cross Section
Large (>1 m²)

Expand to show TLE details & history
Last TLE update: 2 days ago

TLE from 2 days ago
0 SBS 1
1 12065U 80091A   25312.71409455  .00000078  00000-0  00000+0 0  9994
2 12065  10.3764 319.2450 0008346 211.3111 337.0666  0.99824511 44279
Epoch: 2025-11-08T17:08Z
TLE epoch observation values (Epoch: 2025-11-08T17:08:17.769Z)
Latitude
-1.51063°
Longitude
-157.78562°
Altitude
35,879.822 km
Speed
3.072 km/s
True Right ascension
09h 49m 42s
True Declination
-1° 30' 33"
Sunlit
Object was in daylight at epoch
Visualization orbit readout
Latitude
Unknown
Longitude
Unknown
Altitude
Unknown
Speed
Unknown
Apparent Right ascension
Unknown
Apparent Declination
Unknown
Sunlit
N/A
Visualization observer readout
Local Sidereal Time
03:04:10
Azimuth
Unknown
Elevation
Unknown
Doppler factor
Unknown
Orbital elements
Apogee altitude
35,948.763 km
Perigee altitude
35,878.17 km
Semi-major axis
42,291.604 km
Eccentricity
0.00083
Inclination
10.3764°
RAAN
319.245°
Arg. of periapsis
211.3111°
True anomaly
337.0293°
Mean anomaly
337.0666°
Eccentric anomaly
337.04795°
Mean motion
0.24955 °/min
Orbital period
1,442.58 mins
BSTAR
0
Loading maneuver chart data...
Computing Atmospheric mass density...
Loading historical data...
Loading historical data...
Loading historical data...
Loading historical data...
Loading historical data...
Loading historical data...
Loading historical data...
Other satellites on launch #91 in the year 1980 (1980-11-15 UTC)

Documentation

Showing up to 5 results
|